Location: Gülübeli Geçidi
(36.8411°N, 29.7411°E)
Time: 07:42:36
(UTC+00:00)

Cosmos 1459 Rocket - Pass Details

Date: 15 May 2026
Orbit: 935 x 999 km, 83.0° (Epoch: 5 June)

Event Time Altitude Azimuth Distance (km) Brightness Sun altitude
Rises 17:44:44 0° 186° (S) 3,669 6.8 -8.4°
Reaches altitude 10° 17:47:15 10° 187° (S) 2,716 6.1 -8.8°
Maximum altitude 17:53:29 85° 277° (W) 974 4.1 -9.9°
Drops below altitude 10° 17:59:39 10° 5° (N) 2,687 6.7 -10.9°
Sets 18:02:08 0° 6° (N) 3,628 7.4 -11.3°
